Kansas City International, MO

6:44 PM CDT on March 25, 2017 (GMT -0500)
Kansas City International

Weather History for KMCI - October, 2012

Change the Weather History Date:

Monday, October 8, 2012

  Actual Average Record
Temperature  
Mean Temperature 49 °F 59 °F  
Max Temperature 64 °F 70 °F 91 °F (1928)
Min Temperature 33 °F 48 °F 25 °F (2000)
Degree Days  
Heating Degree Days 16 7  
Month to date heating degree days 102 50  
Since 1 July heating degree days 152 117  
Cooling Degree Days 0 1  
Month to date cooling degree days 3 13  
Year to date cooling degree days 1798 1345  
Moisture  
Dew Point 30 °F    
Average Humidity 52    
Maximum Humidity 75    
Minimum Humidity 28    
Precipitation  
Precipitation 0.00 in 0.11 in 2.05 in (1982)
Month to date precipitation 0.01 0.96  
Year to date precipitation 18.56 32.98  
Snow  
Snow 0.00 in 0.00 in 0.00 in ()
Month to date snowfall 0.0 0.0  
Since 1 July snowfall 0.0 0.0  
Since 1 September snowfall 0.0 0.0  
Snow Depth 0.00 in    
Sea Level Pressure  
Sea Level Pressure 30.05 in    
Wind  
Wind Speed 15 mph (SSW)    
Max Wind Speed 25 mph    
Max Gust Speed 32 mph    
Visibility 10 miles    
Events      
T = Trace of Precipitation, MM = Missing Value Source: NWS Daily Summary

Daily Weather History Graph

Daily Weather History Graph

Search for Another Location

Airport or City:

Trip Planner

Search our weather history database for the weather conditions in past years. The results will help you decide how hot, cold, wet, or windy it might be!

Date:

Astronomy

Oct. 08, 2012 Rise Set
Actual Time 7:22 AM CDT 6:49 PM CDT
Civil Twilight 6:55 AM CDT 7:16 PM CDT
Nautical Twilight 6:24 AM CDT 7:47 PM CDT
Astronomical Twilight 5:53 AM CDT 8:18 PM CDT
Moon 12:05 AM CDT (10/8) 2:37 PM CDT (10/8)
Length of Visible Light 12h 21m
Length of Day
11h 27m
Last Quarter, 46% of the Moon is Illuminated
Oct 8
Last Quarter
Oct 15
New
Oct 21
First Quarter
Oct 29
Full
Nov 6
Last Quarter

Hourly Weather History & Observations

Time (CDT) Temp. Windchill Dew Point Humidity Pressure Visibility Wind Dir Wind Speed Gust Speed Precip Events Conditions
12:53 AM 37.9 °F 33.5 °F 26.1 °F 62% 30.14 in 10.0 mi SSW 5.8 mph - N/A   Clear
1:53 AM 37.0 °F 31.6 °F 26.1 °F 65% 30.14 in 10.0 mi SSW 6.9 mph - N/A   Clear
2:53 AM 33.1 °F 26.9 °F 26.1 °F 75% 30.13 in 10.0 mi South 6.9 mph - N/A   Clear
3:53 AM 33.1 °F 26.9 °F 27.0 °F 78% 30.12 in 10.0 mi SSW 6.9 mph - N/A   Clear
4:53 AM 35.1 °F 27.9 °F 28.0 °F 76% 30.11 in 10.0 mi SSW 9.2 mph - N/A   Clear
5:53 AM 33.1 °F 26.9 °F 27.0 °F 78% 30.12 in 10.0 mi SSW 6.9 mph - N/A   Clear
6:53 AM 35.1 °F 27.9 °F 28.0 °F 76% 30.12 in 10.0 mi SSW 9.2 mph - N/A   Clear
7:53 AM 37.0 °F 29.3 °F 28.9 °F 73% 30.11 in 6.0 mi SSW 11.5 mph - N/A   Haze
8:53 AM 45.0 °F 38.2 °F 30.9 °F 58% 30.11 in 10.0 mi SSW 15.0 mph - N/A   Mostly Cloudy
9:53 AM 50.0 °F - 30.9 °F 48% 30.11 in 10.0 mi SSW 16.1 mph 21.9 mph N/A   Scattered Clouds
10:53 AM 55.9 °F - 30.9 °F 39% 30.10 in 10.0 mi SSW 20.7 mph 25.3 mph N/A   Partly Cloudy
11:53 AM 59.0 °F - 30.9 °F 35% 30.07 in 10.0 mi SSW 20.7 mph 25.3 mph N/A   Clear
12:53 PM 61.0 °F - 30.9 °F 32% 30.05 in 9.0 mi SSW 20.7 mph 29.9 mph N/A   Clear
1:53 PM 63.0 °F - 30.9 °F 30% 30.02 in 10.0 mi SSW 18.4 mph 28.8 mph N/A   Clear
2:53 PM 64.0 °F - 30.9 °F 29% 29.99 in 10.0 mi SW 21.9 mph 27.6 mph N/A   Clear
3:53 PM 63.0 °F - 30.9 °F 30% 29.97 in 10.0 mi South 17.3 mph 28.8 mph N/A   Clear
4:53 PM 63.0 °F - 32.0 °F 31% 29.96 in 10.0 mi South 23.0 mph 29.9 mph N/A   Partly Cloudy
5:53 PM 61.0 °F - 33.1 °F 35% 29.95 in 10.0 mi SSW 18.4 mph - N/A   Scattered Clouds
6:53 PM 57.0 °F - 33.1 °F 40% 29.96 in 10.0 mi South 12.7 mph - N/A   Scattered Clouds
7:53 PM 53.1 °F - 33.1 °F 47% 29.96 in 10.0 mi South 10.4 mph - N/A   Scattered Clouds
8:53 PM 53.1 °F - 34.0 °F 48% 29.96 in 10.0 mi South 15.0 mph - N/A   Scattered Clouds
9:53 PM 53.1 °F - 34.0 °F 48% 29.96 in 10.0 mi South 17.3 mph - N/A   Scattered Clouds
10:53 PM 53.1 °F - 35.1 °F 50% 29.95 in 10.0 mi SSW 16.1 mph 25.3 mph N/A   Scattered Clouds
11:53 PM 52.0 °F - 35.1 °F 53% 29.94 in 10.0 mi SSW 18.4 mph 25.3 mph N/A   Clear